| time (UTC) | temp F | wind direction | speed knots | gust knots | rain 1hr in | rain 24hr in | rain mn in | humidity % | barometer mb |
| 20260506150016 | 77 | 277 | 4.3 | 13.9 | 0.00 | 0.00 | 0.00 | 62 | 1017.5 |
| 20260506144521 | 77 | 194 | 2.6 | 10.4 | 0.00 | 0.00 | 0.00 | 64 | 1017.3 |
| 20260506143026 | 76 | 157 | 6.1 | 10.4 | 0.00 | 0.00 | 0.00 | 66 | 1017.1 |
| 20260506141532 | 75 | 209 | 5.2 | 10.4 | 0.00 | 0.00 | 0.00 | 68 | 1017.0 |
| 20260506140007 | 74 | 216 | 6.1 | 11.3 | 0.00 | 0.00 | 0.00 | 71 | 1017.0 |
| 20260506134516 | 73 | 233 | 1.7 | 7.0 | 0.00 | 0.00 | 0.00 | 76 | 1017.1 |
| 20260506133019 | 72 | 204 | 1.7 | 7.0 | 0.00 | 0.00 | 0.00 | 76 | 1017.1 |
| 20260506131526 | 72 | 283 | 4.3 | 8.7 | 0.00 | 0.00 | 0.00 | 79 | 1016.8 |
| 20260506130028 | 70 | 240 | 2.6 | 11.3 | 0.00 | 0.00 | 0.00 | 82 | 1016.8 |
| 20260506124513 | 69 | 234 | 5.2 | 8.7 | 0.00 | 0.00 | 0.00 | 83 | 1016.6 |
| 20260506123028 | 68 | 180 | 3.5 | 8.7 | 0.00 | 0.00 | 0.00 | 85 | 1016.7 |
| 20260506121527 | 67 | 199 | 3.5 | 5.2 | 0.00 | 0.00 | 0.00 | 87 | 1016.4 |
| 20260506120020 | 65 | 209 | 2.6 | 6.1 | 0.00 | 0.00 | 0.00 | 89 | 1016.4 |
| 20260506114511 | 63 | 108 | 0.0 | 1.7 | 0.00 | 0.00 | 0.00 | 90 | 1016.4 |
| 20260506113016 | 58 | 123 | 0.0 | 1.7 | 0.00 | 0.00 | 0.00 | 92 | 1016.2 |
| 20260506111519 | 55 | 91 | 0.0 | 0.0 | 0.00 | 0.00 | 0.00 | 94 | 1016.1 |
| 20260506110028 | 0 | 0.0 | 0.0 | 0.00 | 0.00 | 0.00 | 1015.9 | ||
| 20260506104528 | 0 | 0.0 | 0.0 | 0.00 | 0.00 | 0.00 | 1016.0 | ||
| 20260506103030 | 0 | 0.0 | 0.0 | 0.00 | 0.00 | 0.00 | 1016.1 | ||
| 20260506101531 | 0 | 0.0 | 0.0 | 0.00 | 0.00 | 0.00 | 1016.1 | ||
| 20260506100030 | 0 | 0.0 | 0.0 | 0.00 | 0.00 | 0.00 | 1015.8 | ||
| 20260506094529 | 0 | 0.0 | 0.0 | 0.00 | 0.00 | 0.00 | 1015.9 | ||
| 20260506093034 | 0 | 185 | 0.0 | 0.0 | 0.00 | 0.00 | 0.00 | 93 | 1015.8 |
| 20260506091527 | 54 | 185 | 0.0 | 0.0 | 0.00 | 0.00 | 0.00 | 93 | 1015.8 |
| 20260506090020 | 55 | 185 | 0.0 | 0.0 | 0.00 | 0.00 | 0.00 | 93 | 1016.1 |
| 20260506084532 | 55 | 185 | 0.0 | 0.0 | 0.00 | 0.00 | 0.00 | 93 | 1015.9 |
| 20260506083020 | 55 | 185 | 0.0 | 0.0 | 0.00 | 0.00 | 0.00 | 93 | 1016.2 |
| 20260506081526 | 55 | 185 | 0.0 | 0.0 | 0.00 | 0.00 | 0.00 | 93 | 1016.3 |
| 20260506073022 | 55 | 185 | 0.0 | 0.0 | 0.00 | 0.00 | 0.00 | 93 | 1015.9 |
| 20260506071526 | 55 | 185 | 0.0 | 0.0 | 0.00 | 0.00 | 0.00 | 93 | 1015.8 |
| 20260506061527 | 56 | 185 | 0.0 | 0.0 | 0.00 | 0.00 | 0.00 | 92 | 1016.5 |
| 20260506044536 | 58 | 185 | 0.0 | 0.0 | 0.00 | 0.00 | 0.00 | 88 | 1016.8 |
| 20260506043014 | 58 | 185 | 0.0 | 0.0 | 0.00 | 0.00 | 0.00 | 87 | 1017.2 |
| 20260506041520 | 59 | 185 | 0.0 | 0.0 | 0.00 | 0.00 | 0.00 | 86 | 1017.2 |
| 20260506040006 | 59 | 185 | 0.0 | 1.7 | 0.00 | 0.00 | 0.00 | 87 | 1017.2 |
| 20260506034507 | 59 | 185 | 0.0 | 0.0 | 0.00 | 0.00 | 0.00 | 86 | 1017.1 |
| 20260506033011 | 60 | 185 | 0.0 | 0.0 | 0.00 | 0.00 | 0.00 | 85 | 1016.9 |
| 20260506031517 | 60 | 185 | 0.0 | 0.0 | 0.00 | 0.00 | 0.00 | 85 | 1017.0 |
| 20260506030022 | 61 | 185 | 0.0 | 1.7 | 0.00 | 0.00 | 0.00 | 82 | 1017.0 |
| 20260506024510 | 61 | 185 | 0.0 | 1.7 | 0.00 | 0.00 | 0.00 | 82 | 1017.0 |
| 20260506023016 | 62 | 122 | 0.0 | 0.0 | 0.00 | 0.00 | 0.00 | 81 | 1017.1 |
| 20260506021513 | 62 | 122 | 0.0 | 0.0 | 0.00 | 0.00 | 0.00 | 81 | 1017.1 |
| 20260506020016 | 63 | 122 | 0.0 | 0.0 | 0.00 | 0.00 | 0.00 | 78 | 1017.1 |
| 20260506014505 | 64 | 114 | 0.0 | 0.9 | 0.00 | 0.00 | 0.00 | 77 | 1016.8 |
| 20260506013006 | 65 | 150 | 0.9 | 4.3 | 0.00 | 0.00 | 0.00 | 75 | 1016.9 |
| 20260506011530 | 65 | 178 | 1.7 | 3.5 | 0.00 | 0.00 | 0.00 | 74 | 1016.5 |
| 20260506010014 | 66 | 158 | 1.7 | 4.3 | 0.00 | 0.00 | 0.00 | 72 | 1016.6 |
| 20260506004513 | 67 | 248 | 0.9 | 6.1 | 0.00 | 0.00 | 0.00 | 70 | 1016.7 |
| 20260506003005 | 67 | 147 | 2.6 | 5.2 | 0.00 | 0.00 | 0.00 | 69 | 1016.3 |
| 20260506001508 | 68 | 203 | 1.7 | 7.8 | 0.00 | 0.00 | 0.00 | 68 | 1016.5 |
| 20260506000014 | 69 | 149 | 3.5 | 10.4 | 0.00 | 0.00 | 0.00 | 66 | 1016.6 |
| 20260505234519 | 70 | 169 | 3.5 | 9.6 | 0.00 | 0.00 | 0.00 | 65 | 1016.5 |
| 20260505233004 | 71 | 192 | 3.5 | 8.7 | 0.00 | 0.00 | 0.00 | 63 | 1016.4 |
| 20260505231506 | 72 | 148 | 6.1 | 11.3 | 0.00 | 0.00 | 0.00 | 60 | 1016.2 |
| 20260505230011 | 72 | 157 | 6.1 | 13.0 | 0.00 | 0.00 | 0.00 | 57 | 1016.1 |
| 20260505224516 | 73 | 126 | 4.3 | 11.3 | 0.00 | 0.00 | 0.00 | 57 | 1016.2 |
| 20260505223021 | 74 | 138 | 4.3 | 11.3 | 0.00 | 0.00 | 0.00 | 56 | 1016.1 |
| 20260505221505 | 74 | 159 | 7.0 | 13.0 | 0.00 | 0.00 | 0.00 | 54 | 1016.2 |
| 20260505220022 | 75 | 184 | 3.5 | 12.2 | 0.00 | 0.00 | 0.00 | 54 | 1016.4 |
| 20260505214525 | 75 | 179 | 5.2 | 10.4 | 0.00 | 0.00 | 0.00 | 52 | 1016.2 |
| 20260505213022 | 75 | 221 | 7.0 | 11.3 | 0.00 | 0.00 | 0.00 | 52 | 1016.4 |
| 20260505211524 | 76 | 253 | 3.5 | 13.0 | 0.00 | 0.00 | 0.00 | 52 | 1016.4 |
| 20260505210008 | 76 | 140 | 7.0 | 13.9 | 0.00 | 0.00 | 0.00 | 51 | 1016.3 |
| 20260505204510 | 77 | 148 | 7.0 | 13.0 | 0.00 | 0.00 | 0.00 | 49 | 1016.3 |
| 20260505203016 | 77 | 155 | 6.1 | 19.1 | 0.00 | 0.00 | 0.00 | 49 | 1016.2 |
| 20260505201522 | 78 | 189 | 7.0 | 13.0 | 0.00 | 0.00 | 0.00 | 50 | 1016.4 |
| 20260505200024 | 78 | 214 | 6.1 | 13.9 | 0.00 | 0.00 | 0.00 | 49 | 1016.5 |
| 20260505194518 | 79 | 94 | 3.5 | 11.3 | 0.00 | 0.00 | 0.00 | 48 | 1016.6 |
| 20260505193015 | 78 | 166 | 6.1 | 13.9 | 0.00 | 0.00 | 0.00 | 47 | 1016.9 |
| 20260505191523 | 79 | 276 | 4.3 | 9.6 | 0.00 | 0.00 | 0.00 | 45 | 1017.4 |
| 20260505190024 | 78 | 194 | 3.5 | 9.6 | 0.00 | 0.00 | 0.00 | 48 | 1017.6 |
| 20260505184528 | 79 | 229 | 3.5 | 7.8 | 0.00 | 0.00 | 0.00 | 48 | 1017.7 |
| 20260505183017 | 78 | 110 | 3.5 | 10.4 | 0.00 | 0.00 | 0.00 | 49 | 1017.6 |
| 20260505181520 | 78 | 238 | 5.2 | 13.0 | 0.00 | 0.00 | 0.00 | 46 | 1017.4 |
| 20260505180024 | 79 | 118 | 1.7 | 10.4 | 0.00 | 0.00 | 0.00 | 49 | 1017.3 |
| 20260505174524 | 78 | 227 | 5.2 | 9.6 | 0.00 | 0.00 | 0.00 | 51 | 1017.4 |
| 20260505173008 | 78 | 135 | 5.2 | 10.4 | 0.00 | 0.00 | 0.00 | 50 | 1017.4 |
| 20260505171517 | 78 | 138 | 3.5 | 8.7 | 0.00 | 0.00 | 0.00 | 50 | 1017.5 |
| 20260505170020 | 76 | 227 | 3.5 | 8.7 | 0.00 | 0.00 | 0.00 | 52 | 1017.8 |
| 20260505164522 | 77 | 215 | 3.5 | 8.7 | 0.00 | 0.00 | 0.00 | 50 | 1018.0 |
| 20260505163029 | 77 | 238 | 1.7 | 5.2 | 0.00 | 0.00 | 0.00 | 54 | 1018.3 |
| 20260505161514 | 76 | 176 | 3.5 | 9.6 | 0.00 | 0.00 | 0.00 | 54 | 1018.4 |
| 20260505153024 | 75 | 152 | 4.3 | 9.6 | 0.00 | 0.00 | 0.00 | 58 | 1018.5 |
| 20260505151526 | 75 | 138 | 6.1 | 9.6 | 0.00 | 0.00 | 0.00 | 58 | 1018.3 |